TIME,DELAY(SENSOR),PRES,T(CTD),SAL,OXYGEN,RAWTEMP,T(OPTODE),TCPHASE,FLUOR,BETA(BETA700),BETA(BETA412),BETA(BETA440),CDOM,C(CSC),ED(ED412.40),ED(ED444.00),ED(ED489.70),ED(ED554.30),LU(LU411.80),LU(LU443.40),LU(LU489.60),LU(LU554.10),COMP,TILTX,TILTX(TILTY),CHECK
1374871943,5807,497.2699890136719000,6.5489001274108890,34.1268005371093750,74.6830291748046900,601.5905151367188000,6.5328788757324220,49.5681800842285160,51,103,87,79,78,15339,2147745636,2147423030,2148009097,2147876251,2147630518,2147065993,2148251035,2147197248,2679,4,13,7778
1374872070,5805,486.8699951171875000,6.7248997688293460,34.1100006103515600,83.0716629028320300,596.1812744140625000,6.7075538635253910,48.4957885742187500,52,102,84,80,77,15336,2147746185,2147425545,2148006884,2147873042,2147630336,2147072384,2148246390,2147200100,1460,3,13,59559
1374872224,5806,475.4700012207031000,6.9808998107910160,34.1026000976562500,93.5435562133789000,588.0977783203125000,6.9680838584899900,47.1991615295410160,52,105,87,80,77,15338,2147746605,2147424923,2148004754,2147876708,2147628598,2147072429,2148239378,2147195300,739,4,13,7135
1374872375,5810,464.9200134277344000,7.1347999572753910,34.0983009338378900,101.2462997436523400,583.3582153320312000,7.1205558776855470,46.3038101196289060,51,103,86,79,76,15339,2147744429,2147425938,2148006683,2147873225,2147629101,2147081106,2148241792,2147197604,818,4,13,38827
1374872527,5811,452.4899902343750000,7.3790001869201660,34.0920982360839840,107.2453002929687500,575.6439819335938000,7.3682880401611330,45.5628700256347660,50,104,87,80,76,15336,2147742555,2147424073,2148005769,2147875885,2147629568,2147071652,2148240768,2147200411,521,4,12,45441
1374872654,5804,440.6000061035156000,7.6458001136779785,34.0913009643554700,118.1953964233398400,567.6257934570312000,7.6252188682556150,44.3503303527832000,51,103,88,78,76,15336,2147742244,2147425600,2148007917,2147874130,2147626907,2147080649,2148238098,2147200914,3477,4,13,4646
1374872771,5809,429.5400085449219000,7.7203001976013180,34.0923995971679700,121.5105972290039000,565.1322021484375000,7.7050089836120605,43.9921913146972660,50,104,88,78,76,15334,2147742125,2147424914,2148005412,2147872064,2147628553,2147078427,2148236937,2147198116,3358,3,13,16514
1374872898,5810,418.0599975585937500,7.9746999740600590,34.0924987792968750,128.3126983642578000,556.8969726562500000,7.9681382179260250,43.2230796813964840,50,104,90,80,74,15335,2147741037,2147423771,2148004306,2147873856,2147623076,2147076544,2148237202,2147200192,2096,3,13,14553
1374873025,5803,406.7900085449219000,8.2479000091552730,34.0948982238769500,135.7666931152343800,548.6538696289062000,8.2309455871582030,42.4165306091308600,50,105,89,80,74,15334,2147737115,2147426505,2148004077,2147871972,2147621833,2147083346,2148229613,2147198281,2127,4,13,8685
1374873143,5808,396.3900146484375000,8.5319004058837890,34.0926017761230500,146.3450012207031200,539.6494750976562000,8.5173873901367190,41.3594398498535160,51,105,85,80,74,15334,2147738660,2147423451,2148001810,2147875108,2147621074,2147083273,2148232749,2147199021,2350,4,13,35754
1374873270,5806,385.5199890136719000,8.8894996643066400,34.0918006896972660,157.0157928466797000,528.2619018554688000,8.8787193298339840,40.3038215637207000,50,106,85,80,73,15335,2147738404,2147424438,2148006409,2147873700,2147616941,2147085083,2148230272,2147200987,2102,3,13,16252
1374873411,5810,374.1300048828125000,9.4146003723144530,34.0956993103027340,172.4420013427734400,512.1807861328125000,9.3872871398925780,38.8700408935546900,50,104,86,80,72,15337,2147738651,2147424420,2148005979,2147875675,2147615360,2147091062,2148227904,2147202486,1591,3,13,35105
1374873550,5810,363.6099853515625000,9.8613004684448240,34.1133995056152340,193.6354064941406200,497.6068115234375000,9.8465681076049800,37.1833992004394500,49,105,84,80,70,15337,2147737737,2147424402,2148004836,2147872585,2147616173,2147096274,2148229293,2147200612,1224,4,13,5086
1374873722,5808,351.2000122070312500,10.3245000839233400,34.1347999572753900,204.9833984375000000,482.7098999023437500,10.3145103454589840,36.2293395996093750,49,103,87,79,70,15335,2147732891,2147427017,2148008393,2147874541,2147610340,2147099757,2148224676,2147205165,1121,3,13,63051
1374873854,5805,340.0199890136719000,10.6967000961303710,34.1660003662109400,219.0464019775390600,470.6539916992187500,10.6921501159667970,35.2162895202636700,49,103,87,81,68,15340,2147730121,2147427629,2148007168,2147873490,2147607872,2147097654,2148224310,2147203355,465,3,13,8619
1374873981,5810,329.1600036621094000,10.9263000488281250,34.1762008666992200,222.0980072021484400,463.5541076660156000,10.9141197204589840,34.9319915771484400,49,103,85,79,69,15335,2147729453,2147426386,2148007606,2147874230,2147608164,2147103341,2148223698,2147202230,2644,3,13,17673
1374874111,5806,318.2099914550781000,11.2279996871948240,34.1925010681152340,225.5377960205078000,453.6460876464844000,11.2233800888061520,34.5852088928222660,48,104,87,79,68,15337,2147729316,2147427136,2148010404,2147872969,2147607177,2147106102,2148225481,2147203072,2667,3,14,11447
1374874238,5812,307.7699890136719000,11.5689001083374020,34.1851005554199200,218.3247070312500000,442.5234985351562500,11.5698795318603520,34.8008689880371100,48,103,85,80,68,15334,2147726646,2147429430,2148015734,2147872795,2147604187,2147109028,2148220790,2147200274,1685,3,13,38424
1374874379,5812,296.3800048828125000,11.9889001846313480,34.2053985595703100,216.6251983642578000,429.3287048339844000,11.9800596237182620,34.6850318908691400,49,104,87,79,68,15193,2147730523,2147431506,2148027977,2147875181,2147603126,2147112685,2148225472,2147205796,851,3,14,57373
1374874506,5807,286.0000000000000000,12.3726997375488280,34.2337989807128900,219.3459930419922000,416.3615112304687500,12.3822803497314450,34.3297996520996100,48,104,88,81,68,15329,2147724644,2147426898,2148012681,2147870089,2147600694,2147113161,2148219593,2147204022,969,3,13,46580
1374874647,5812,275.0599975585937500,12.7831001281738280,34.2608985900878900,218.1304016113281200,403.0195007324219000,12.7952899932861330,34.1891403198242200,49,109,86,78,67,15332,2147723437,2147442980,2148052242,2147874066,2147598500,2147123885,2148234002,2147207076,279,3,13,51202
1374874798,5810,264.1700134277344000,13.1682996749877930,34.2872009277343750,219.0686950683593800,391.5822143554687500,13.1487102508544920,33.9609985351562500,48,105,85,80,68,15328,2147720685,2147445083,2148070537,2147875538,2147595392,2147133750,2148239168,2147208566,393,3,14,57750
1374874982,5812,252.1999969482422000,13.6890001296997070,34.3392982482910160,221.3818969726562500,373.6554870605469000,13.7015600204467770,33.5616416931152340,48,105,87,81,66,15329,2147722038,2147456118,2148101248,2147873280,2147594523,2147141906,2148252461,2147208438,1563,3,13,41589
1374875113,5809,241.6300048828125000,14.2304000854492190,34.3778991699218750,221.9757995605468800,356.8356018066406000,14.2192001342773440,33.2769813537597660,48,104,87,81,66,15326,2147721398,2147468781,2148147373,2147873929,2147593792,2147149110,2148275968,2147209353,3218,3,14,6937
1374875240,5804,230.8800048828125000,14.7995996475219730,34.3991012573242200,218.3845062255859400,338.0744934082031000,14.7954902648925780,33.1918411254882800,49,106,87,80,66,15321,2147723986,2147485942,2148197668,2147876397,2147594066,2147165842,2148299849,2147214272,2069,3,14,64464
1374875369,5806,219.1399993896484400,15.6127996444702150,34.4911003112793000,215.4631958007812500,309.9837036132812500,15.6565799713134770,32.9398498535156250,50,106,86,79,64,15321,2147723757,2147513590,2148265572,2147873462,2147587291,2147186349,2148324672,2147213961,2089,3,14,42513
1374875481,5809,208.0700073242187500,16.5594005584716800,34.6082000732421900,216.2917022705078000,280.7113037109375000,16.5521507263183600,32.4734802246093750,50,111,88,80,64,15316,2147730907,2147550034,2148349330,2147871177,2147588178,2147212534,2148355510,2147217874,2462,3,14,61010
1374875620,5801,195.1999969482422000,17.6772994995117200,34.7545013427734400,210.7937011718750000,244.2532043457031200,17.6660594940185550,32.2586784362793000,52,114,89,82,65,15306,2147735689,2147566656,2148365878,2147874834,2147585472,2147225280,2148359533,2147220306,1853,2,14,24029
1374875675,5808,190.8300018310547000,17.9605998992919920,34.7855987548828100,210.0077972412109400,234.7124023437500000,17.9574298858642580,32.1688995361328100,55,115,87,81,64,15304,2147730038,2147541549,2148285568,2147873993,2147581074,2147219254,2148318555,2147217042,947,3,15,23365
1374875730,5808,186.6000061035156200,18.3504009246826170,34.8328018188476560,209.0892944335937500,222.2566986083984400,18.3377990722656250,32.0464515686035160,58,118,88,81,65,15302,2147738093,2147569170,2148339136,2147874422,2147584868,2147244900,2148342025,2147216539,372,3,14,56405
1374875785,5809,182.5299987792968800,18.5659008026123050,34.8605003356933600,208.3354949951172000,215.0471038818359400,18.5579795837402340,31.9881000518798830,60,117,85,80,63,15298,2147746624,2147604845,2148420946,2147872411,2147583030,2147264667,2148386962,2147224329,120,2,14,34917
1374875840,5808,178.4199981689453000,18.6742000579834000,34.8755989074707000,208.2736053466797000,211.0935058593750000,18.6787300109863280,31.9372901916503900,64,115,88,80,63,15295,2147759844,2147663222,2148570194,2147872027,2147587794,2147293577,2148449161,2147225965,2678,2,14,18759
1374875925,5811,172.5299987792968800,19.1816997528076170,34.9291992187500000,207.2144927978515600,195.4409942626953000,19.1568603515625000,31.7806892395019530,71,120,89,82,64,15287,2147775360,2147714825,2148660096,2147874880,2147594057,2147326811,2148480896,2147226560,1596,2,15,4948
1374875980,5808,168.9400024414062500,19.2119007110595700,34.9374008178710940,207.3032073974609400,193.8231048583984400,19.2063007354736330,31.7536392211914060,71,117,89,80,63,15287,2147781193,2147712896,2148634742,2147874349,2147595684,2147323803,2148474669,2147231698,1444,2,15,49923
1374876035,5809,165.1499938964843800,19.3736991882324220,34.9578018188476560,206.7783050537109400,187.8843994140625000,19.3877696990966800,31.7015094757080080,76,119,89,81,62,15286,2147855149,2147992923,2149268827,2147876580,2147621275,2147480493,2148750656,2147250459,803,1,15,32160
1374876102,5806,160.7700042724609400,19.6100006103515620,34.9889984130859400,207.9253997802734400,180.8522033691406200,19.6026992797851560,31.5419292449951170,83,122,85,83,65,15278,2147906550,2148129865,2149563163,2147880146,2147644763,2147548571,2148883520,2147259309,3073,2,15,4578
1374876157,5810,157.1699981689453000,19.7374992370605470,34.9964981079101560,208.4248962402343800,176.9391937255859400,19.7223205566406250,31.4611701965332030,82,121,89,82,63,15262,2147893677,2148046802,2149322989,2147880749,2147638738,2147507565,2148780123,2147254244,2765,2,15,63192
1374876242,5808,152.3899993896484400,20.1289997100830080,35.0441017150878900,207.4187927246093800,165.6717987060547000,20.0668907165527340,31.3639507293701170,95,120,89,82,62,15266,2147890285,2147994404,2149159360,2147880548,2147635529,2147473014,2148688795,2147244763,2910,2,15,18707
1374876333,5808,149.0800018310547000,20.2301006317138670,35.0586013793945300,207.9707031250000000,162.4880981445312500,20.1642894744873050,31.2907009124755860,95,118,89,83,63,15263,2147917787,2148029796,2149189513,2147880566,2147641965,2147484809,2148690230,2147250477,3192,2,15,23217
1374876484,5811,145.3899993896484400,20.3745994567871100,35.0793991088867200,209.4181976318359400,157.0578002929687500,20.3304595947265620,31.1383209228515620,100,123,91,84,63,15255,2148178569,2148713673,2150529499,2147892388,2147738157,2147812278,2149243849,2147291163,718,2,15,49489
1374876672,5809,141.2200012207031200,20.9253997802734380,35.1436996459960940,213.6045074462890600,137.9111022949218800,20.9168205261230470,30.6577796936035160,112,124,89,82,62,15239,2148502756,2149407396,2151795008,2147901659,2147856274,2148131931,2149734089,2147330587,1878,2,16,49582
1374876835,5806,137.2299957275390600,21.0998001098632800,35.1721992492675800,218.0263977050781200,132.4040069580078000,21.0856304168701170,30.3538303375244140,115,124,89,82,62,15229,2148633472,2149590902,2152021558,2147907419,2147902454,2148191616,2149773741,2147338285,1241,2,16,9422
1374876956,5810,132.9100036621093800,21.4612007141113280,35.2109985351562500,222.2864990234375000,120.4916992187500000,21.4510307312011720,29.9810295104980470,127,124,89,83,61,15208,2148893814,2150035190,2152679149,2147917641,2147996196,2148367360,2150004726,2147358829,1200,2,15,45351
1374877059,5807,128.7299957275390600,21.5741996765136720,35.2291984558105500,224.2010040283203000,116.3356018066406200,21.5786094665527340,29.8312606811523440,133,125,90,83,62,15209,2149122550,2150342646,2152985097,2147923638,2148078820,2148476662,2150100333,2147368713,1035,2,15,42988
1374877162,5806,124.6699981689453100,21.7600002288818360,35.2514991760253900,227.8836975097656200,110.6999969482421900,21.7516803741455080,29.5774192810058600,150,126,90,83,61,15199,2149528832,2150996571,2153834605,2147932004,2148231808,2148733184,2150405156,2147394834,110,2,15,61558
1374877259,5811,119.9700012207031200,21.9365005493164060,35.2593994140625000,228.1145935058593800,104.6110992431640600,21.9387893676757800,29.4876899719238280,149,121,89,82,61,15195,2150160914,2151985170,2155112457,2147957485,2148469851,2149132763,2150855460,2147439542,2867,2,16,30857
1374877326,5810,116.0199966430664000,22.0062007904052730,35.2594985961914060,229.6464996337890600,102.3076019287109400,22.0095996856689450,29.3840808868408200,151,126,91,85,61,15182,2150430171,2152240850,2155167378,2147964937,2148560192,2149204544,2150837275,2147445851,2419,1,15,64892
1374877393,5810,111.8899993896484400,22.1210994720459000,35.2681999206543000,230.0460968017578000,99.2447891235351600,22.1037807464599600,29.3256607055664060,166,125,92,84,59,15175,2150808493,2152697581,2155507520,2147975634,2148699245,2149374070,2150965750,2147460050,1883,2,15,42591
1374877460,5809,107.9300003051757800,22.3152999877929700,35.2579002380371100,227.7234039306640600,92.3687133789062500,22.3153495788574220,29.3495807647705080,137,125,89,83,62,15176,2151570084,2153714843,2156553563,2148001700,2148946788,2149743497,2151352566,2147499172,1213,1,15,14360
1374877529,5807,104.4499969482421900,22.4678993225097660,35.2742004394531250,228.8766937255859400,87.7300491333007800,22.4581604003906250,29.2346305847167970,119,120,89,84,60,15193,2152479021,2154907355,2157816484,2148031030,2149276781,2150254893,2151884973,2147556781,3520,2,16,52317
1374877608,5813,100.8399963378906200,22.6250991821289060,35.2835998535156250,230.0296936035156200,82.4199600219726600,22.6217403411865230,29.1116294860839840,103,121,89,83,59,15200,2153919734,2156734162,2159720210,2148078902,2149841746,2151098212,2152736155,2147636973,3219,2,16,49360
1374877663,5810,98.5899963378906200,22.7453002929687500,35.2905998229980500,230.7003936767578000,78.7970428466796900,22.7334098815917970,29.0337009429931640,92,122,92,83,60,15203,2155046445,2158131190,2161152137,2148125778,2150304009,2151789339,2153410459,2147705088,3014,2,16,34213
1374877718,5811,96.6399993896484400,22.8883991241455080,35.2985000610351560,231.2191009521484400,74.3929214477539000,22.8692302703857420,28.9531097412109380,88,122,93,83,59,15201,2156175862,2159469037,2162457334,2148171163,2150786432,2152461165,2154043236,2147769362,2781,1,16,54756
1374877773,5805,94.9499969482421900,22.9659004211425780,35.3067016601562500,232.5852050781250000,71.8186721801757800,22.9486503601074220,28.8561706542968750,91,121,90,83,59,15201,2157473078,2161025453,2163989430,2148216694,2151353197,2153247515,2154767186,2147838400,2083,2,16,34327
1374877858,5806,92.0999984741211000,23.0308990478515620,35.3129997253418000,234.4353942871093800,69.4566574096679700,23.0215492248535160,28.7397899627685550,85,124,90,84,59,15195,2161674651,2166279899,2169535241,2148400850,2153195684,2155855104,2157281133,2148085714,1568,1,16,59430
1374877913,5805,89.6900024414062500,23.1744995117187500,35.3221015930175800,235.3475952148437500,64.7287902832031200,23.1675300598144530,28.6380805969238280,83,121,91,83,58,15194,2166218038,2171900086,2175508434,2148616420,2155284553,2158805796,2160127926,2148366564,682,1,15,1497
1374877968,5805,87.3000030517578100,23.2516994476318360,35.3268013000488300,236.5756072998047000,61.9445686340332000,23.2535400390625000,28.5463409423828120,79,123,91,83,60,15198,2172179456,2179195794,2183277019,2148932233,2158123419,2162763108,2163852452,2148740388,3188,1,16,38800
1374878023,5808,84.9499969482421900,23.5058994293212900,35.3418998718261700,238.0962066650390600,54.5078201293945300,23.4834499359130860,28.3837699890136720,75,123,90,84,59,15197,2176342674,2183861851,2187793024,2149140836,2160691812,2166102866,2166800594,2149023588,3007,1,16,41634
1374878078,5807,82.7600021362304700,23.5678997039794920,35.3426017761230500,240.1089935302734400,51.9813613891601560,23.5616092681884770,28.2612209320068360,74,123,91,84,59,15195,2181184804,2189336777,2193159808,2149433152,2163682267,2169889353,2170031597,2149334518,2537,1,16,47722
1374878136,5807,80.4400024414062500,23.6179008483886720,35.3428993225097660,240.5299987792968800,50.2401199340820300,23.6154994964599600,28.2206401824951170,74,123,90,85,57,15189,2198394742,2210868635,2216966710,2150638921,2172169773,2181344301,2180644196,2150424768,1693,1,16,20756
1374878191,5810,78.1999969482421900,23.6944999694824220,35.3446006774902340,240.9499969482422000,47.9760589599609400,23.6855792999267580,28.1734504699707030,75,123,89,83,57,15186,2214415661,2230546925,2238705380,2151951945,2180385993,2192297819,2190542043,2151483748,967,2,16,50734
1374878246,5804,76.0000000000000000,23.7371997833251950,35.3465003967285160,241.2501068115234400,46.6043014526367200,23.7280597686767580,28.1429901123046880,73,123,92,84,58,15193,2217584777,2232640859,2239320192,2152227766,2183153142,2195094601,2192171099,2151669842,698,2,16,25505
1374878301,5812,73.8399963378906200,23.7786006927490230,35.3482017517089840,241.5086059570312500,45.1169891357421900,23.7741203308105470,28.1130409240722660,71,122,91,84,56,15184,2223427995,2237968685,2243742582,2152860589,2187626898,2200159936,2196018130,2152085851,1075,1,16,10073
1374878356,5811,71.7799987792968800,23.8535003662109380,35.3511009216308600,242.3036956787109400,42.9532394409179700,23.8411598205566400,28.0508098602294920,71,124,91,85,55,15187,2231729280,2246582729,2252176722,2153631213,2193083766,2206437860,2200819858,2152631113,1389,2,16,16445
1374878411,5807,69.9199981689453100,23.9036006927490230,35.3549003601074200,242.8303070068359400,41.2668800354003900,23.8934192657470700,28.0066699981689450,70,123,91,84,58,15181,2240749888,2255972818,2261344128,2154610825,2199019529,2213146834,2206011026,2153240192,1340,1,16,47001
1374878496,5810,66.8399963378906200,24.0408992767334000,35.3564987182617200,243.9745025634765600,36.7317695617675800,24.0340194702148440,27.8999290466308600,69,122,91,84,59,15170,2257427776,2272284260,2276490761,2156377499,2211312914,2226395346,2215816822,2154385627,1745,1,16,36178
1374878551,5808,64.5299987792968800,24.1606006622314450,35.3609008789062500,245.0921936035156200,32.8131103515625000,24.1555995941162100,27.8027400970459000,66,122,92,86,57,15170,2261250377,2274631744,2278007067,2157344749,2214402788,2228414656,2215965293,2154573504,1684,1,16,54271
1374878606,5807,62.5099983215332000,24.3299007415771500,35.3610992431640600,246.0279998779297000,27.8855991363525400,24.3085899353027340,27.7012004852294920,63,126,93,85,57,15166,2230728411,2236620306,2235525952,2154298624,2199390317,2207782838,2196947858,2152472768,1596,1,16,26303
1374878661,5809,60.7700004577636700,24.4654998779296880,35.3709983825683600,246.4815063476562500,23.2356204986572270,24.4530792236328120,27.6243495941162100,63,131,92,85,57,15157,2237554496,2242909193,2241218733,2155047177,2205733266,2214161033,2201277897,2153005312,1953,1,16,37825
1374878716,5809,59.1399993896484400,24.7283992767334000,35.3851013183593750,246.2908935546875000,16.2756500244140620,24.6695594787597660,27.5473003387451170,64,127,92,85,58,15147,2250128210,2255602596,2253562514,2156721042,2216212626,2225354916,2209667136,2153975168,2198,1,16,18485
1374878800,5806,56.6899986267089840,24.9981994628906250,35.3931999206543000,246.3937988281250000,6.3474559783935550,24.9788208007812500,27.4213905334472660,60,129,94,85,58,15143,2245822043,2248912813,2245559945,2156704283,2216134518,2222849462,2206174427,2153747428,2774,1,16,527
1374878855,5810,54.7099990844726560,25.0659008026123050,35.3950004577636700,245.7855072021484400,3.9104020595550537,25.0548191070556640,27.4177207946777340,61,129,93,85,54,15145,2289686226,2296653979,2295154395,2163169417,2244695890,2254305609,2230708251,2156972882,2904,1,17,62276
1374878910,5806,52.8100013732910160,25.2066001892089840,35.3937988281250000,244.7794036865234400,-0.8659511804580688,25.2038707733154300,27.4030208587646500,61,129,94,84,56,15143,2307652626,2314519789,2312710592,2166009490,2262437165,2272856310,2244544000,2158784749,3512,1,17,33323
1374878965,5808,51.2299995422363300,25.2861995697021500,35.3975982666015600,245.2825012207031200,-3.1573529243469240,25.2754306793212900,27.3532695770263670,58,128,95,86,57,15145,2244864877,2244437138,2239511378,2157779638,2221812553,2225034953,2205371986,2153926272,573,1,16,13486
1374879056,5804,49.5600013732910160,25.3861999511718750,35.3987007141113300,246.0088958740234400,-6.4370508193969730,25.3778991699218750,27.2819690704345700,58,128,91,87,58,15145,2248526400,2247256448,2241920521,2158768786,2227091318,2229037440,2207377910,2154297225,707,1,16,24902
1374879165,5809,46.9199981689453100,25.6914997100830080,35.3953018188476560,245.0337982177734400,-17.2662105560302730,25.7167091369628900,27.1920604705810550,57,131,92,86,53,15138,2333031040,2335745773,2331418660,2173581037,2291187273,2295519515,2256557357,2161303945,873,1,16,54978
1374879220,5806,45.1300010681152340,26.0212993621826170,35.3800010681152340,244.7388000488281200,-23.6537895202636720,25.9169006347656250,27.1272392272949220,56,130,94,87,54,15132,2269903515,2266328036,2259280475,2163446034,2252859510,2251528941,2221392859,2156423094,3388,2,15,42986
1374879299,5809,43.3800010681152340,26.1896991729736330,35.3793983459472660,243.7227020263672000,-31.7016792297363280,26.1695098876953120,27.0734004974365230,56,128,95,86,58,15132,2270048850,2266009060,2258964315,2164394925,2255185938,2252620169,2221568064,2156619648,3565,1,16,41540
1374879443,5810,40.6899986267089840,26.2775001525878900,35.3769989013671900,242.8746948242187500,-35.0233688354492200,26.2738990783691400,27.0698394775390620,56,128,93,86,54,15134,2333469220,2330874112,2324166016,2178914011,2315745947,2313678326,2265876571,2163312073,1371,2,17,41236
1374879498,5807,38.5800018310546900,26.6154003143310550,35.3513984680175800,241.0139007568359400,-43.4626808166503900,26.5394592285156250,27.0483894348144530,56,130,93,86,55,15125,2331403401,2327494272,2320397046,2180839908,2322058880,2317491382,2267340562,2164032347,875,1,16,7525
1374879553,5808,37.0299987792968750,26.7513999938964840,35.3574981689453100,239.1672973632812500,-49.6040000915527340,26.7330207824707030,27.0548801422119140,56,127,92,86,52,15128,2340231259,2336511789,2329833536,2184088594,2329799488,2324348489,2271845504,2165020964,1170,1,16,3295
1374879644,5805,35.6800003051757800,26.7742996215820300,35.3606986999511700,237.7566986083984400,-51.3599014282226560,26.7884101867675780,27.0958099365234380,55,131,90,85,56,15131,2340813312,2336517760,2329736210,2186259300,2334790957,2328078710,2273737865,2165596589,828,1,16,40528
1374879788,5808,33.2099990844726560,27.1089992523193360,35.3526000976562500,234.2622070312500000,-61.3268508911132800,27.1032505035400400,27.1305198669433600,55,124,91,85,54,15147,2355605906,2351392640,2345421476,2193727259,2353896365,2344064740,2284069924,2168095195,210,1,15,37085